Regional Weather Roundup
Issued by NWS

Home | Current Version | Previous Version | Graphics & Text | Print | Product List | Glossary On
Versions: 1 2 3 4 5 6 7 8 9 10 11 12 13 14 15 16 17 18 19 20 21 22 23 24 25 26 27 28 29 30 31 32 33 34 35 36 37 38 39 40 41 42 43 44 45 46 47 48 49 50
769
ASUS45 KSLC 221710
RWRUT

UTAH REGIONAL WEATHER ROUNDUP
NATIONAL WEATHER SERVICE SALT LAKE CITY UT
1000 AM MST THU FEB 22 2018

UTZ001>011-023>025-221800-

NORTHERN UTAH

CITY           SKY/WX    TMP DP  RH WIND       PRES   REMARKS
BRIGHAM CITY   CLOUDY    22  11  65 N3        30.00S
HILL AFB       CLOUDY    16   4  59 E17       29.96R WCI   0
LOGAN          CLOUDY    14   6  70 NE3       30.01S
OGDEN          CLOUDY    22   8  55 S6        29.97S WCI  14
SALT LAKE CITY CLOUDY    30  14  51 SE15      29.97F WCI  19
TOOELE VALLEY  CLOUDY    23  14  68 S13       29.98R WCI  11
WENDOVER       CLOUDY    22  13  68 NE5       29.97F WCI  16
HEBER CITY       N/A     14  12  92 CALM      29.96F
WEST JORDAN    PTSUNNY   25  16  67 S14       29.97S WCI  13

$$

UTZ011>015-024>027-221800-

CENTRAL/NORTHEAST UTAH

CITY           SKY/WX    TMP DP  RH WIND       PRES   REMARKS
PROVO AIRPORT  CLOUDY    22  14  71 CALM      30.00F
MOAB/CANYONLAN CLOUDY    33  26  75 CALM      29.99F
DELTA          PTSUNNY   18  16  93 CALM      29.99S
PRICE          PTSUNNY   24  20  84 CALM      29.96F
RICHFIELD      MOSUNNY   25  16  68 CALM      30.00S
VERNAL         CLOUDY    20  10  65 CALM      30.02F

$$

UTZ013>016-019>022-027-221800-

SOUTHERN UTAH

CITY           SKY/WX    TMP DP  RH WIND       PRES   REMARKS
BRYCE CANYON   MOSUNNY   19  12  74 CALM      29.95S
CEDAR CITY     SUNNY     27  15  61 SW6       29.97F WCI  20
MILFORD        MOSUNNY   22  15  75 SW16      29.98S WCI   8
ST GEORGE      PTSUNNY   34  16  47 CALM      30.11F
HANKSVILLE     MOSUNNY   30  12  47 CALM      30.05S
KANAB          SUNNY     28  14  54 N2        30.11S
BLANDING         N/A     31  16  54 SW10      30.08R WCI  22

$$

REGIONAL REPORTS     COLORADO/ARIZONA

CITY           SKY/WX    TMP DP  RH WIND       PRES   REMARKS
CRAIG, CO      LGT SNOW  17  12  80 CALM      29.98S
GRAND JUNCTION CLOUDY    30  27  88 SE3       30.01R
RIFLE, CO      CLOUDY    26  23  88 CALM      29.98S
MONTROSE, CO   LGT SNOW  27  23  85 CALM      30.00S FOG
CORTEZ, CO     PTSUNNY   35  24  64 S15       30.02S WCI  25
COLORADO CITY    N/A     34  16  47 S3        30.08S
PAGE, AZ       CLOUDY    34  17  50 VRB3      30.06S
GRAND CANYON   SUNNY     26   9  48 SW14      30.05R WCI  14
KINGMAN, AZ    SUNNY     43  12  28 SW16      30.11S
FLAGSTAFF, AZ  SUNNY     25   4  40 W14G23    30.05R WCI  13

$$

REGIONAL REPORTS    NEVADA/IDAHO/WYOMING

CITY           SKY/WX    TMP DP  RH WIND       PRES   REMARKS
LAS VEGAS, NV  MOSUNNY   45  13  27 SE12      30.08F
ELY, NY        CLOUDY    24   5  44 S12       29.90S WCI  13
ELKO, NV       SNOW      18  16  92 E3        29.90S VSB 1/4
POCATELLO, ID  PTSUNNY   25  10  53 E8        29.96S WCI  16
BURLEY, ID     PTSUNNY   25  13  60 S6        29.92R WCI  18
EVANSTON, WY   MOSUNNY    6  -1  73 E15       29.88F WCI -12
ROCK SPRINGS,  PTSUNNY    6   0  76 S3        29.95F

$$




USA.gov is the U.S. government's official web portal to all federal, state and local government web resources and services.